Location: Maccacari
(45.1333°N, 11.1333°E)
Time: 01:52:54
(UTC+00:00)

Tiros 1 despin weight - Pass Details

Date: 22 January 2021
Orbit: 593 x 642 km, 48.2° (Epoch: 07 March)

Event Time Altitude Azimuth Distance (km) Brightness Sun altitude
Rises 13:01:07 0° 197° (SSW) 2,885 ? 21.9°
Reaches altitude 10° 13:04:07 10° 177° (S) 1,972 ? 21.7°
Maximum altitude 13:07:01 17° 137° (SE) 1,561 ? 21.4°
Drops below altitude 10° 13:09:55 10° 96° (E) 1,959 ? 21.2°
Sets 13:12:52 0° 76° (ENE) 2,857 ? 21.0°
